Weather History for YCIN - April, 2013

Change the Weather History Date:

Tuesday, April 9, 2013

  Actual Average Record
Temperature  
Mean Temperature 86 °F -  
Max Temperature 101 °F - - ()
Min Temperature 72 °F - - ()
Cooling Degree Days 22    
Growing Degree Days 36 (Base 50)    
Moisture  
Dew Point 68 °F    
Average Humidity 55    
Maximum Humidity 88    
Minimum Humidity 23    
Precipitation  
Precipitation 0.00 in - - ()
Sea Level Pressure  
Sea Level Pressure 29.85 in    
Wind  
Wind Speed 4 mph ()    
Max Wind Speed 9 mph    
Max Gust Speed -    
T = Trace of Precipitation, MM = Missing Value Source: Averaged Metar Reports

Daily Weather History Graph

Daily Weather History Graph

Search for Another Location

Airport or City:

Trip Planner

Search our weather history database for the weather conditions in past years. The results will help you decide how hot, cold, wet, or windy it might be!

Date:

Astronomy

Apr. 09, 2013 Rise Set
Actual Time 5:52 AM AWST 5:39 PM AWST
Civil Twilight 5:30 AM AWST 6:01 PM AWST
Nautical Twilight 5:05 AM AWST 6:27 PM AWST
Astronomical Twilight 4:40 AM AWST 6:52 PM AWST
Moon 4:37 AM AWST (4/9) 4:47 PM AWST (4/9)
Length of Visible Light 12h 31m
Length of Day
11h 47m
Waning Crescent, 2% of the Moon is Illuminated
Apr 9
Waning Crescent
Apr 10
New
Apr 18
First Quarter
Apr 26
Full
May 2
Last Quarter

Hourly Weather History & Observations

Time (AWST) Temp. Heat Index Dew Point Humidity Pressure Visibility Wind Dir Wind Speed Gust Speed Precip Events Conditions
12:00 AM 81 °F - 66 °F 51% 29.85 in - SSE 4.6 mph - -  
12:00 AM 80.6 °F 82.7 °F 66.2 °F 61% 29.86 in - SSE 4.6 mph - N/A   Unknown
1:00 AM 78.8 °F - 66.2 °F 65% 29.86 in - North 3.5 mph - N/A   Unknown
2:00 AM 75.2 °F - 66.2 °F 73% 29.83 in - WSW 4.6 mph - N/A   Unknown
3:00 AM 74 °F - 68 °F 75% 29.83 in - SSE 4.6 mph - -  
3:00 AM 75.2 °F - 68.0 °F 78% 29.83 in - SSE 4.6 mph - N/A   Unknown
4:00 AM 75.2 °F - 68.0 °F 78% 29.83 in - SSE 2.3 mph - N/A   Unknown
5:00 AM 73.4 °F - 68.0 °F 83% 29.86 in - SSE 4.6 mph - N/A   Unknown
6:00 AM 72 °F - 67 °F 81% 29.86 in - South 3.5 mph - -  
6:00 AM 71.6 °F - 68.0 °F 88% 29.86 in - South 3.5 mph - N/A   Unknown
7:00 AM 78.8 °F - 71.6 °F 78% 29.89 in - Calm Calm - N/A   Unknown
8:00 AM 84.2 °F 88.4 °F 69.8 °F 62% 29.89 in - SSE 4.6 mph - N/A   Unknown
9:00 AM 90 °F - 69 °F 40% 29.90 in - East 4.6 mph - -  
9:00 AM 89.6 °F 94.7 °F 69.8 °F 52% 29.89 in - East 4.6 mph - N/A   Unknown
10:00 AM 95.0 °F 103.2 °F 71.6 °F 47% 29.89 in - ENE 5.8 mph - N/A   Unknown
11:00 AM 96.8 °F 101.8 °F 68.0 °F 39% 29.86 in - NE 6.9 mph - N/A   Unknown
12:00 PM 98 °F - 66 °F 25% 29.84 in - East 8.1 mph - -  
12:00 PM 98.6 °F 102.8 °F 66.2 °F 35% 29.83 in - East 8.1 mph - N/A   Unknown
1:00 PM 100.4 °F 103.6 °F 64.4 °F 31% 29.83 in - NNE 9.2 mph - N/A   Unknown
2:00 PM 98.6 °F 101.0 °F 64.4 °F 32% 29.80 in - NE 4.6 mph - N/A   Unknown
3:00 PM 98 °F - 64 °F 23% 29.79 in - East 1.2 mph - -  
3:00 PM 98.6 °F 101.0 °F 64.4 °F 32% 29.80 in - ENE 1.2 mph - N/A   Unknown
4:00 PM 96.8 °F 100.7 °F 66.2 °F 37% 29.80 in - NE 4.6 mph - N/A   Unknown
5:00 PM 93.2 °F 97.7 °F 68.0 °F 44% 29.80 in - ENE 3.5 mph - N/A   Unknown
6:00 PM 87 °F - 70 °F 47% 29.82 in - Calm Calm - -  
6:00 PM 87.8 °F 92.6 °F 69.8 °F 55% 29.83 in - Calm Calm - N/A   Unknown
7:00 PM 86.0 °F 90.4 °F 69.8 °F 58% 29.86 in - Calm Calm - N/A   Unknown
8:00 PM 86.0 °F 89.4 °F 68.0 °F 55% 29.89 in - WSW 6.9 mph - N/A   Unknown
9:00 PM 83 °F - 69 °F 53% 29.89 in - SW 4.6 mph - -  
9:00 PM 82.4 °F 85.4 °F 68.0 °F 62% 29.89 in - SW 4.6 mph - N/A   Unknown
10:00 PM 82.4 °F 86.3 °F 69.8 °F 66% 29.86 in - Calm Calm - N/A   Unknown
11:00 PM 82.4 °F 85.4 °F 68.0 °F 62% 29.86 in - South 4.6 mph - N/A   Unknown